EHI
0 0 0 1 2 1 0 0 0 0 0 0 0 0 0 0 0 0 0 0 0 0 0 0 0 0 0 0 0 0 0 0 0 0 0 0 0 0
0 0 0 1 1 1 0 0 0 0 0 0 0 0 0 0 0 0 0 0 0 0 0 0 0 0 0 0 0 0 0 0 0 0 0 0 0 0
0 0 0 0 0 0 0 0 0 0 0 0 0 0 0 0 0 0 0 0 0 0 0 0 0 0 0 0 0 0 0 0 0 0 0 0 0 0
0 0 0 0 0 0 0 0 0 0 0 0 0 0 0 0 0 0 0 0 0 0 0 0 0 0 0 0 0 0 0 0 0 0 0 0 0 0
0 0 0 0 0 0 0 0 0 0 0 0 0 0 0 0 0 0 0 0 0 0 0 0 0 0 0 0 0 0 0 0 0 0 0 0 0 0
0 0 0 0 0 0 0 0 0 0 0 0 0 0 0 0 0 0 0 0 0 0 0 0 0 0 0 0 0 0 0 0 0 0 0 0 0 0
0 0 0 0 0 0 0 0 0 0 0 0 0 0 0 0 0 0 0 0 0 0 0 0 0 0 0 0 0 0 0 0 0 0 0 0 0 0
0 0 0 0 0 0 0 0 0 0 0 0 0 0 0 0 0 0 0 0 0 0 0 0 0 0 0 0 0 0 0 0 0 0 0 0 0 0
0 0 0 0 0 0 0 0 0 0 0 0 0 0 0 0 0 0 0 0 0 0 0 0 0 0 0 0 0 0 0 0 0 0 0 0 0 0
0 0 0 0 0 0 0 0 0 0 0 0 0 0 0 0 0 0 0 0 0 0 0 0 0 0 0 0 0 0 0 0 0 0 0 0 0 0
0 0 0 0 0 0 0 0 0 0 0 0 0 0 0 0 0 0 0 0 0 0 0 0 0 0 0 0 0 0 0 0 0 0 0 0 0 0
0 0 0 0 0 0 0 0 0 0 0 0 0 0 0 0 0 0 0 0 0 0 0 0 0 0 0 0 0 0 0 0 0 0 0 0 0 0
0 0 0 0 0 0 0 0 0 0 0 0 0 0 0 0 0 0 0 0 0 0 0 0 0 0 0 0 0 0 0 0 0 0 0 0 0 0
0 0 0 0 0 0 0 0 0 0 0 0 0 0 0 0 0 0 0 0 0 0 0 0 0 0 0 0 0 0 0 0 0 0 0 0 0 0
0 0 0 0 0 0 0 0 0 0 0 0 0 0 0 0 0 0 0 0 0 0 0 0 0 0 0 0 0 0 0 0 0 0 0 0 0 0
0 0 0 0 0 0 0 0 0 0 0 0 0 0 0 0 0 0 0 0 0 0 0 0 0 0 0 0 0 0 0 0 0 0 0 0 0 0
0 0 0 0 0 0 0 0 0 0 0 0 0 0 0 0 0 0 0 0 0 0 0 0 0 0 0 0 0 0 0 0 0 0 0 0 0 0
0 0 0 0 0 0 0 0 0 0 0 0 0 0 0 0 0 0 0 0 0 0 0 0 0 0 0 0 0 0 0 0 0 0 0 0 0 0
0 0 0 0 0 0 0 0 0 0 0 0 0 0 0 0 0 0 0 0 0 0 0 0 0 0 0 0 0 0 0 0 0 0 0 0 0 0
0 0 0 0 0 0 0 0 0 0 0 0 0 0 0 0 0 0 0 0 0 0 0 0 0 0 0 0 0 0 0 0 0 0 0 0 0 0
0 0 0 0 0 0 0 0 0 0 0 0 0 0 0 0 0 0 0 0 0 0 0 0 0 0 0 0 0 0 0 0 0 0 0 0 0 0
0 0 0 0 0 0 0 0 0 0 0 0 0 0 0 0 0 0 0 0 0 0 0 0 0 0 0 0 0 0 0 0 0 0 0 0 0 0
0 0 0 0 0 0 0 0 0 0 0 0 0 0 0 0 0 0 0 0 0 0 0 0 0 0 0 0 0 0 0 0 0 0 0 0 0 0
Wind_Speed
3 2 2 2 2 1 2 2 2 2 1 1 1 1 1 1 2 1 2 6 6 5 4 3 3 3 3 3 4 4 4 4 6 6 6 6 7 7
2 3 3 2 2 1 1 2 2 2 1 1 1 2 2 1 2 1 2 6 6 4 4 4 3 3 3 4 4 4 4 5 5 6 6 6 6 6
3 3 3 3 2 2 1 1 1 1 1 0 1 1 1 1 1 1 1 2 4 6 4 4 3 3 3 4 4 4 5 5 5 6 7 7 7 7
4 3 3 2 2 2 1 1 1 0 1 1 0 1 1 1 2 1 1 1 2 6 5 4 3 3 3 3 3 3 4 5 5 6 7 7 8 8
4 4 4 3 3 2 2 1 0 1 1 1 1 1 1 1 2 2 1 1 2 5 6 5 4 3 3 3 4 4 4 5 5 5 6 6 7 7
4 4 4 3 3 3 1 0 1 1 2 2 2 2 1 1 1 1 1 1 1 2 3 3 5 5 5 5 5 5 5 5 5 5 5 6 6 6
3 4 4 4 4 3 3 2 1 1 2 2 2 2 1 1 1 0 1 1 2 1 1 2 3 3 5 6 7 6 6 6 5 6 6 6 7 7
3 3 2 2 3 1 1 1 2 2 1 1 1 2 2 1 1 1 1 1 1 1 1 2 2 2 2 2 6 7 6 6 6 6 7 7 7 8
4 4 4 4 3 3 1 3 2 1 2 2 2 2 2 2 2 2 1 1 1 1 2 2 1 2 2 2 8 7 6 7 7 7 8 8 8 8
4 4 4 4 6 5 3 3 3 2 0 1 0 1 1 1 2 2 2 2 2 2 2 3 2 2 2 1 7 8 8 7 8 8 8 9 9 9
4 5 5 5 7 7 3 3 4 3 4 4 2 1 0 1 2 3 2 2 2 1 2 2 2 2 2 3 5 10 9 9 9 10 10 10 10 9
3 4 6 6 7 7 4 4 4 4 3 3 2 3 3 4 5 5 3 3 2 1 0 2 2 3 3 3 2 4 7 9 12 12 12 12 11 9
4 3 5 6 7 7 5 4 4 3 1 1 1 1 1 1 3 3 2 3 3 2 1 2 3 3 3 3 4 4 4 4 6 8 12 14 13 11
3 4 5 6 6 5 4 4 3 4 1 1 1 1 1 1 1 1 2 3 3 3 3 4 4 4 4 5 4 4 4 5 6 6 6 7 12 14
3 4 4 4 3 1 0 2 3 2 2 2 2 1 1 1 1 1 1 2 3 4 4 4 5 5 6 6 6 5 5 6 6 6 6 6 7 7
1 1 4 4 3 1 1 2 1 2 3 2 2 2 1 1 2 2 2 2 3 3 3 4 5 6 6 6 6 7 6 6 6 7 7 7 8 8
4 3 2 1 1 0 0 1 1 0 1 2 2 2 2 2 2 2 2 3 4 3 3 3 4 5 7 7 7 7 7 7 6 6 7 8 8 9
5 2 1 1 1 1 1 1 1 1 1 2 2 3 3 3 2 2 3 3 4 4 4 4 4 5 6 6 7 8 7 7 7 7 8 9 9 8
4 2 1 1 2 2 2 2 2 2 2 3 3 3 3 3 3 4 4 4 4 5 5 5 5 6 8 7 6 6 7 7 8 8 8 9 10 9
3 2 2 2 2 2 2 2 2 2 2 3 3 3 4 4 4 4 4 5 5 6 6 5 5 6 7 9 9 7 8 8 8 9 10 10 10 9
2 2 3 3 2 3 3 3 3 3 4 4 4 4 5 5 5 5 5 5 6 7 7 6 5 6 8 8 9 9 7 7 8 8 11 11 11 10
3 3 3 3 3 4 3 3 3 4 4 5 4 4 5 5 6 7 7 6 6 7 8 7 6 7 8 9 10 10 10 9 8 12 14 13 10 11
4 4 4 4 4 4 4 4 5 4 4 5 5 5 5 6 6 7 7 8 7 8 8 8 8 8 8 9 10 10 13 12 10 9 8 9 15 18
Wind_Direction
346 339 322 326 295 273 264 261 264 271 292 333 341 23 35 55 68 107 119 115 116 109 108 111 123 141 143 134 135 145 158 171 178 183 186 191 196 199
6 1 345 339 328 311 281 271 271 261 275 329 6 23 38 62 92 71 118 139 137 137 139 136 136 145 152 150 152 161 174 182 189 191 194 201 206 211
8 4 3 357 348 338 310 285 269 260 244 325 360 64 71 79 88 86 130 170 147 147 145 143 142 154 173 174 177 183 187 188 193 200 205 212 214 217
9 4 4 8 4 347 334 308 298 276 221 190 236 180 125 128 127 139 142 169 138 137 148 157 159 157 163 169 182 187 191 193 199 206 213 218 220 224
9 4 2 4 1 9 341 354 105 144 203 187 169 149 144 129 149 149 143 179 178 144 157 167 171 177 186 194 196 198 201 205 211 215 219 223 226 230
16 14 9 3 357 351 355 359 163 186 183 182 158 154 148 141 173 154 159 169 195 159 145 159 168 188 203 208 204 207 211 212 212 213 216 223 230 235
21 26 30 24 11 347 348 344 267 226 189 166 166 163 139 149 146 195 163 176 167 205 184 196 182 198 193 205 207 205 207 208 211 215 218 223 229 234
19 22 46 53 48 38 311 309 302 268 239 199 171 152 150 160 153 215 203 206 185 165 249 230 216 219 219 211 153 168 193 205 214 221 225 228 232 235
13 11 21 36 5 21 98 185 182 224 260 261 182 177 177 161 217 225 214 294 316 220 253 258 236 239 245 152 148 178 199 212 221 228 232 234 236 237
25 25 24 22 28 6 15 49 64 62 321 242 106 197 172 206 262 262 245 239 227 221 232 261 251 253 259 202 168 193 208 219 228 233 237 240 241 243
38 34 28 34 26 356 11 45 59 66 89 89 81 79 67 245 272 265 251 252 257 218 229 269 279 276 262 247 194 195 209 219 229 234 237 239 240 242
61 64 58 34 16 360 6 31 46 44 48 82 117 170 193 188 211 247 273 284 296 301 288 282 277 280 277 261 248 215 222 222 226 231 234 237 236 241
35 45 55 41 19 6 358 23 28 355 1 67 87 106 140 176 202 221 258 278 295 302 281 279 287 288 288 279 272 261 256 252 237 234 228 229 229 233
15 26 49 29 10 359 8 24 341 298 280 58 58 49 45 36 12 320 300 298 297 296 297 289 281 284 284 281 279 274 270 268 267 264 256 223 222 228
9 24 357 334 319 315 144 296 286 287 17 31 35 24 3 355 290 249 237 243 250 254 249 252 259 271 280 285 288 285 283 275 266 266 264 257 254 246
308 259 237 251 254 280 252 231 275 7 2 3 7 1 340 271 265 272 271 261 266 256 236 237 249 265 273 281 283 284 282 281 276 272 272 270 265 260
335 290 267 221 192 139 61 22 357 321 318 344 333 319 316 309 306 304 297 289 289 293 283 253 240 241 256 272 277 279 284 282 280 281 276 274 269 267
297 289 319 338 345 1 354 341 323 339 326 312 311 315 316 310 303 293 285 289 293 295 298 294 285 275 265 255 251 272 279 284 287 283 282 280 279 275
267 289 311 316 316 317 320 320 327 333 311 301 303 304 304 300 297 295 294 295 298 299 298 295 294 293 293 293 282 254 280 289 289 285 283 284 285 287
251 274 282 288 291 300 305 310 310 306 298 301 304 299 294 295 296 297 297 302 304 302 299 298 297 301 304 305 303 289 257 272 285 289 291 289 285 279
272 274 280 283 285 287 294 298 299 300 305 301 296 295 295 293 295 297 300 305 292 292 298 302 311 289 285 283 283 286 285 251 255 273 287 288 289 290
284 282 280 281 278 280 279 278 278 281 282 279 286 289 288 290 293 294 297 297 294 296 301 301 296 285 283 286 290 294 295 293 268 245 248 259 279 291
283 285 277 268 263 265 273 277 279 282 287 292 293 291 291 291 292 292 291 292 295 298 298 298 298 294 293 293 293 295 298 300 298 293 281 250 236 246